Location: Unspecified
(0.0000°N, 0.0000°E)
Time: 01:29:23
(UTC+00:00)

Envisat - Pass Details

Date: 18 October 2020
Orbit: 764 x 766 km, 98.1° (Epoch: 25 October)

Event Time Altitude Azimuth Distance (km) Brightness Sun altitude
Rises 04:28:06 0° 50° (NE) 3,216 6.8 -19.0°
Reaches altitude 10° 04:31:55 10° 80° (E) 2,295 6.5 -18.0°
Maximum altitude 04:33:52 12° 103° (ESE) 2,145 6.6 -17.6°
Drops below altitude 10° 04:35:50 10° 126° (SE) 2,299 6.5 -17.1°
Sets 04:39:38 0° 155° (SSE) 3,229 6.8 -16.1°
